Weather History for Ocala, FL

Change the Weather History Date:

Friday, March 29, 2013

  Actual Average Record
Temperature  
Mean Temperature 54 °F -  
Max Temperature 73 °F 77 °F 87 °F (1998)
Min Temperature 35 °F 52 °F 35 °F (2013)
Degree Days  
Heating Degree Days 11    
Growing Degree Days 4 (Base 50)    
Moisture  
Dew Point 35 °F    
Average Humidity 60    
Maximum Humidity 87    
Minimum Humidity 19    
Precipitation  
Precipitation 0.00 in - - ()
Sea Level Pressure  
Sea Level Pressure 30.29 in    
Wind  
Wind Speed 2 mph (NNW)    
Max Wind Speed 9 mph    
Max Gust Speed -    
Visibility 10 miles    
Events      
Averages and records for this station are not official NWS values.
T = Trace of Precipitation, MM = Missing Value Source: NWS Daily Summary

Daily Weather History Graph

Daily Weather History Graph

Search for Another Location

Airport:

Trip Planner

Search our weather history database for the weather conditions in past years. The results will help you decide how hot, cold, wet, or windy it might be!

Date:

Astronomy

Mar. 29, 2013 Rise Set
Actual Time 7:21 AM EDT 7:45 PM EDT
Civil Twilight 6:58 AM EDT 8:09 PM EDT
Nautical Twilight 6:30 AM EDT 8:37 PM EDT
Astronomical Twilight 6:02 AM EDT 9:05 PM EDT
Moon 10:28 PM EDT (3/29) 8:43 AM EDT (3/29)
Length of Visible Light 13h 11m
Length of Day
12h 23m
Waning Gibbous, 93% of the Moon is Illuminated
Mar 29
Waning Gibbous
Apr 3
Last Quarter
Apr 10
New
Apr 18
First Quarter
Apr 25
Full

Hourly Weather History & Observations

Time (EDT) Temp. Windchill Dew Point Humidity Pressure Visibility Wind Dir Wind Speed Gust Speed Precip Events Conditions
12:15 AM 46.4 °F - 37.4 °F 71% 30.31 in 10.0 mi Calm Calm - N/A   Clear
12:35 AM 46.4 °F 45.2 °F 37.4 °F 71% 30.31 in 10.0 mi North 3.5 mph - N/A   Clear
12:55 AM 44.6 °F - 37.4 °F 76% 30.31 in 10.0 mi North - - N/A   Clear
1:15 AM 44.6 °F 43.1 °F 37.4 °F 76% 30.31 in 10.0 mi North 3.5 mph - N/A   Clear
1:35 AM 42.8 °F 41.1 °F 37.4 °F 81% 30.31 in 10.0 mi North 3.5 mph - N/A   Clear
1:55 AM 42.8 °F - 37.4 °F 81% 30.30 in 10.0 mi Calm Calm - N/A   Clear
2:15 AM 42.8 °F - 37.4 °F 81% 30.30 in 10.0 mi Calm Calm - N/A   Clear
2:35 AM 41.0 °F - 35.6 °F 81% 30.30 in 10.0 mi Calm Calm - N/A   Clear
2:55 AM 41.0 °F - 35.6 °F 81% 30.30 in 10.0 mi Calm Calm - N/A   Clear
3:15 AM 39.2 °F - 35.6 °F 87% 30.30 in 10.0 mi Calm Calm - N/A   Clear
3:35 AM 39.2 °F - 35.6 °F 87% 30.30 in 10.0 mi Calm Calm - N/A   Clear
3:55 AM 39.2 °F - 35.6 °F 87% 30.30 in 10.0 mi Calm Calm - N/A   Clear
4:15 AM 39.2 °F - 35.6 °F 87% 30.29 in 10.0 mi Calm Calm - N/A   Clear
4:35 AM 39.2 °F - 35.6 °F 87% 30.29 in 10.0 mi Calm Calm - N/A   Clear
4:55 AM 39.2 °F - 33.8 °F 81% 30.29 in 10.0 mi Calm Calm - N/A   Clear
5:15 AM 37.4 °F - 33.8 °F 87% 30.29 in 10.0 mi Calm Calm - N/A   Clear
5:35 AM 37.4 °F - 33.8 °F 87% 30.29 in 10.0 mi Calm Calm - N/A   Clear
5:55 AM 37.4 °F - 33.8 °F 87% 30.29 in 10.0 mi Calm Calm - N/A   Clear
6:15 AM 37.4 °F - 33.8 °F 87% 30.30 in 10.0 mi Calm Calm - N/A   Clear
6:35 AM 37.4 °F - 33.8 °F 87% 30.31 in 10.0 mi Calm Calm - N/A   Clear
6:50 AM 37.4 °F - 33.8 °F 87% 30.31 in 10.0 mi Calm Calm - N/A   Clear
7:50 AM 35.6 °F - 30.2 °F 81% 30.33 in 10.0 mi Calm Calm - N/A   Clear
8:50 AM 46.4 °F - 39.2 °F 76% 30.34 in 10.0 mi Calm Calm - N/A   Clear
9:50 AM 57.2 °F - 42.8 °F 59% 30.35 in 10.0 mi Calm Calm - N/A   Clear
10:50 AM 64.4 °F - 37.4 °F 37% 30.35 in 10.0 mi East 3.5 mph - N/A   Clear
11:50 AM 69.8 °F - 30.2 °F 23% 30.35 in 10.0 mi North 5.8 mph - N/A   Clear
12:50 PM 69.8 °F - 32.0 °F 25% 30.33 in 10.0 mi Calm Calm - N/A   Clear
1:50 PM 71.6 °F - 30.2 °F 22% 30.29 in 10.0 mi North 6.9 mph - N/A   Clear
2:50 PM 71.6 °F - 30.2 °F 22% 30.27 in 10.0 mi North 9.2 mph - N/A   Clear
3:50 PM 73.4 °F - 30.2 °F 20% 30.24 in 10.0 mi North 5.8 mph - N/A   Clear
4:50 PM 73.4 °F - 28.4 °F 19% 30.22 in 10.0 mi North 3.5 mph - N/A   Clear
5:50 PM 73.4 °F - 28.4 °F 19% 30.21 in 10.0 mi North 6.9 mph - N/A   Clear
7:55 PM 64.4 °F - 32.0 °F 30% 30.22 in 10.0 mi West 4.6 mph - N/A   Clear
8:15 PM 64.4 °F - 35.6 °F 34% 30.23 in 10.0 mi West 5.8 mph - N/A   Clear
8:35 PM 62.6 °F - 35.6 °F 37% 30.24 in 10.0 mi West 3.5 mph - N/A   Clear
8:55 PM 62.6 °F - 33.8 °F 34% 30.24 in 10.0 mi Calm Calm - N/A   Clear
9:15 PM 60.8 °F - 35.6 °F 39% 30.25 in 10.0 mi West 3.5 mph - N/A   Clear
9:35 PM 57.2 °F - 35.6 °F 44% 30.25 in 10.0 mi SE 5.8 mph - N/A   Clear
9:55 PM 55.4 °F - 35.6 °F 47% 30.26 in 10.0 mi Calm Calm - N/A   Clear
10:15 PM 55.4 °F - 35.6 °F 47% 30.27 in 10.0 mi NNE 3.5 mph - N/A   Clear
10:35 PM 53.6 °F - 35.6 °F 51% 30.28 in 10.0 mi SSE 6.9 mph - N/A   Clear
10:55 PM 51.8 °F - 35.6 °F 54% 30.28 in 10.0 mi SSW 3.5 mph - N/A   Clear
11:15 PM 53.6 °F - 35.6 °F 51% 30.28 in 10.0 mi Calm Calm - N/A   Clear
11:35 PM 51.8 °F - 35.6 °F 54% 30.28 in 10.0 mi Calm Calm - N/A   Clear
11:55 PM 50.0 °F - 35.6 °F 58% 30.28 in 10.0 mi Calm Calm - N/A   Clear